Temperature
7 6 7 7 7 7 7 7 7 7 7 7 7 7 7 7 7 7 7 6 6 6 6 6 6 6 6 6 5 5 5 4 4 4 4 4 4 4 4 4 4 3 3
7 7 6 6 6 6 7 7 7 7 7 7 7 7 7 7 6 6 6 6 6 6 6 6 6 5 5 5 5 5 4 4 4 4 4 3 3 3 3 3 3 3 3
6 6 6 6 6 6 7 7 7 7 7 7 7 6 6 6 6 6 6 6 6 6 6 5 5 5 5 5 4 4 4 4 3 3 3 3 3 3 3 3 3 3 3
6 6 6 6 6 6 6 6 6 6 6 6 6 6 6 6 6 5 5 5 5 5 5 5 5 5 4 4 4 4 4 3 3 3 3 3 2 2 2 2 2 2 2
6 6 6 6 6 6 6 6 6 6 6 6 6 6 6 5 5 5 5 5 5 5 5 4 4 4 4 4 4 3 3 3 3 2 2 2 2 2 2 1 1 1 1
5 5 5 5 5 5 5 5 5 5 5 5 5 5 5 5 5 5 5 4 4 4 4 4 4 4 3 3 3 3 3 2 2 2 2 2 2 1 1 1 0 0 0
5 5 5 5 5 5 5 5 5 5 5 5 5 5 5 4 4 4 4 4 4 4 4 4 3 3 3 3 3 2 2 2 2 1 1 1 1 1 0 0 -0 -0 -0
4 4 4 4 4 4 4 4 4 4 4 4 4 4 4 4 4 4 4 3 3 3 3 3 3 3 3 2 2 2 2 2 1 1 1 1 0 0 -0 -1 -1 -1 -1
4 4 4 4 4 4 4 4 4 4 4 4 3 3 3 4 3 3 3 3 3 3 3 3 3 2 2 2 2 2 2 1 1 1 0 0 -0 -0 -1 -1 -1 -2 -2
3 3 3 3 3 3 3 3 3 3 3 3 3 3 3 3 3 3 3 3 2 3 2 2 2 2 2 2 1 1 1 1 1 0 0 -0 -0 -1 -1 -1 -2 -2 -3
3 3 3 3 3 3 3 3 3 2 2 2 2 2 2 2 2 2 2 2 2 2 2 2 2 1 1 1 1 1 0 0 -0 -0 -1 -1 -1 -1 -1 -2 -2 -3 -3
2 2 2 2 2 2 2 2 2 2 2 2 2 2 2 2 2 2 2 2 1 1 1 1 1 1 0 0 0 -0 -0 -1 -1 -1 -1 -1 -2 -2 -2 -2 -3 -3 -3
1 1 1 1 1 1 1 1 1 1 1 1 1 1 1 1 1 1 1 1 1 1 1 0 0 0 -0 -0 -1 -1 -1 -1 -2 -2 -2 -2 -2 -3 -3 -3 -3 -4 -4
1 1 1 1 1 1 1 1 1 1 1 1 1 0 0 0 1 1 1 0 0 -0 -0 -0 -0 -1 -1 -1 -1 -1 -2 -2 -2 -2 -3 -3 -3 -3 -4 -4 -4 -4 -4
1 0 0 0 0 0 0 -0 -0 -0 -0 -0 -0 -0 -0 -0 -0 -0 -0 -0 -0 -1 -1 -1 -1 -1 -1 -1 -2 -2 -2 -3 -3 -3 -3 -4 -4 -4 -4 -4 -4 -5 -5
-0 -0 -0 -1 -1 -1 -1 -1 -1 -1 -1 -1 -1 -1 -1 -1 -1 -1 -1 -1 -1 -1 -2 -1 -1 -2 -2 -2 -2 -3 -3 -3 -3 -4 -4 -4 -4 -4 -5 -5 -5 -5 -5
-1 -1 -1 -1 -1 -1 -1 -1 -1 -1 -1 -1 -1 -1 -2 -2 -2 -2 -2 -2 -2 -2 -2 -2 -2 -2 -3 -3 -3 -3 -3 -3 -4 -4 -4 -5 -5 -5 -5 -5 -5 -6 -6
-1 -1 -2 -2 -2 -2 -2 -2 -2 -2 -2 -2 -2 -2 -2 -2 -2 -2 -2 -2 -2 -2 -3 -3 -3 -3 -3 -3 -4 -4 -4 -4 -4 -5 -5 -5 -5 -5 -5 -6 -6 -6 -6
-2 -2 -2 -2 -3 -3 -3 -3 -3 -3 -3 -3 -3 -3 -3 -3 -3 -3 -3 -3 -3 -3 -3 -3 -3 -3 -4 -4 -4 -4 -4 -5 -5 -5 -5 -5 -5 -6 -6 -6 -6 -6 -6
-3 -3 -3 -3 -3 -3 -3 -3 -3 -3 -3 -3 -3 -3 -3 -3 -3 -3 -3 -3 -4 -4 -4 -4 -4 -4 -4 -4 -5 -5 -5 -5 -5 -5 -5 -6 -6 -6 -6 -6 -6 -7 -7
-3 -3 -3 -4 -4 -4 -4 -4 -4 -4 -4 -4 -4 -4 -4 -4 -4 -4 -4 -4 -4 -4 -4 -4 -4 -4 -5 -5 -5 -5 -5 -5 -5 -6 -6 -6 -6 -6 -6 -7 -7 -7 -7
-4 -4 -4 -4 -4 -4 -4 -4 -4 -4 -4 -5 -5 -5 -5 -5 -4 -4 -4 -5 -5 -5 -5 -5 -5 -5 -5 -5 -5 -6 -6 -6 -6 -6 -6 -6 -6 -7 -7 -7 -7 -7 -7
-5 -5 -5 -5 -5 -5 -5 -5 -5 -5 -5 -5 -5 -5 -5 -5 -5 -5 -5 -5 -5 -5 -5 -5 -5 -5 -5 -5 -6 -6 -6 -6 -6 -6 -6 -6 -7 -7 -7 -7 -7 -8 -8
-5 -5 -5 -5 -5 -5 -5 -5 -5 -5 -5 -5 -5 -5 -5 -5 -5 -5 -5 -5 -5 -5 -5 -5 -6 -6 -6 -6 -6 -6 -6 -6 -6 -6 -7 -7 -7 -7 -7 -7 -8 -8 -8
-6 -6 -6 -6 -6 -6 -6 -6 -6 -6 -6 -6 -6 -6 -6 -6 -6 -6 -6 -6 -6 -6 -6 -6 -6 -6 -6 -6 -6 -6 -6 -6 -7 -7 -7 -7 -7 -7 -7 -8 -8 -8 -8
-6 -6 -6 -6 -6 -6 -6 -7 -7 -6 -6 -6 -6 -6 -6 -6 -6 -6 -6 -6 -6 -6 -6 -6 -6 -6 -6 -6 -6 -6 -6 -7 -7 -7 -7 -7 -7 -7 -8 -8 -8 -8 -8
Wind_Speed
3 3 3 3 3 4 4 4 4 4 5 5 5 5 4 4 4 4 3 4 4 3 3 4 3 3 2 2 1 1 1 2 3 3 1 1 1 2 3 6 8 8 9
3 3 3 3 3 4 4 4 4 4 5 5 5 5 5 5 5 5 5 4 5 5 5 4 4 3 3 2 2 2 2 2 3 4 3 2 2 2 3 4 6 8 8
3 3 3 3 3 4 4 4 4 4 4 5 5 5 5 5 5 5 5 5 5 5 5 5 5 5 5 3 3 3 3 2 2 3 3 2 2 2 3 4 4 5 8
2 3 3 3 3 3 3 3 4 4 5 5 5 5 5 5 5 5 5 5 5 5 5 5 5 6 6 5 5 4 4 3 3 3 3 3 3 3 2 3 4 4 5
2 2 3 3 3 2 3 3 3 4 4 4 4 5 5 5 5 6 5 5 5 5 5 5 5 6 7 6 5 5 4 4 3 3 4 3 3 3 3 3 4 4 4
2 3 2 2 2 3 2 2 3 3 3 3 4 4 4 4 6 8 7 5 5 5 5 5 5 6 7 8 8 7 7 6 5 5 4 5 5 4 3 3 3 3 4
2 2 2 2 2 3 2 2 3 3 3 3 4 4 4 5 7 8 8 5 5 5 5 5 4 5 6 5 6 7 7 9 8 6 6 7 5 5 3 3 3 4 5
1 1 1 1 2 2 2 3 3 3 3 4 4 4 4 4 7 8 9 6 5 5 6 6 6 5 6 6 5 5 5 6 7 6 6 6 5 4 4 4 5 5 5
1 1 1 1 2 2 3 3 3 3 3 3 3 4 4 5 7 9 8 5 5 6 6 6 6 6 8 9 6 6 6 6 8 10 9 8 8 7 5 2 2 3 6
1 1 1 1 2 3 3 3 2 3 3 3 4 4 5 5 7 9 9 4 5 5 4 5 8 8 9 9 6 6 7 6 4 4 5 6 6 7 8 5 4 4 4
2 2 2 1 2 2 2 2 2 2 3 3 4 4 4 5 6 8 9 5 5 5 4 4 5 9 9 10 8 6 8 6 4 4 4 4 4 4 4 5 5 4 5
2 2 2 2 2 2 2 2 2 2 3 3 3 3 3 4 4 6 8 9 6 5 5 4 5 8 9 9 8 8 9 6 3 3 4 4 4 4 4 4 6 6 7
2 2 2 2 2 2 1 2 2 2 2 3 3 3 3 3 4 7 8 9 9 5 4 6 6 8 8 7 8 9 6 3 3 4 5 5 4 4 3 3 4 5 7
3 3 3 2 3 2 1 2 2 2 3 3 3 4 4 3 3 3 3 4 6 5 3 5 6 6 5 6 6 5 4 4 4 4 4 3 2 2 2 2 3 3 4
3 3 3 3 3 2 2 2 3 3 3 4 4 4 4 4 5 6 4 4 3 4 3 2 2 2 3 3 3 4 3 3 4 3 3 3 3 3 3 3 3 3 4
3 3 3 3 3 3 2 3 4 5 6 6 6 6 5 7 7 7 7 7 7 7 4 3 4 4 5 5 4 4 4 4 4 3 3 4 4 4 4 3 3 4 6
3 3 3 3 3 3 3 3 4 5 6 7 8 8 8 8 8 7 8 7 8 7 4 4 5 5 5 4 4 4 4 4 3 4 4 4 4 4 4 4 4 5 5
3 3 3 3 3 3 3 4 4 4 5 4 5 8 9 8 8 8 7 5 4 5 4 5 5 5 4 4 5 4 4 4 4 4 4 4 4 4 5 5 5 5 5
3 3 3 3 3 3 4 4 4 4 4 5 4 5 6 6 7 7 5 3 4 5 4 4 4 5 4 5 5 4 5 5 4 4 4 5 4 4 5 5 5 7 6
3 5 5 4 4 4 4 4 4 4 4 4 5 4 3 2 3 3 3 3 4 5 5 5 4 5 4 4 4 4 4 4 4 4 5 5 5 5 5 6 5 5 5
3 4 6 5 4 4 4 4 5 5 5 5 5 5 6 3 4 4 4 4 4 4 4 4 4 4 4 4 4 5 5 4 4 4 4 4 4 5 5 5 5 5 5
4 4 4 4 5 5 5 5 5 5 5 6 5 5 7 4 4 4 4 4 4 4 4 4 4 4 4 4 4 4 5 5 4 4 4 4 4 4 5 5 5 5 5
4 5 5 5 5 7 7 5 5 5 5 5 5 4 4 4 4 4 4 4 4 3 3 3 4 3 4 4 4 4 5 5 4 4 4 4 4 4 4 5 5 5 5
4 5 5 6 5 5 5 5 5 5 5 5 5 5 4 4 4 4 4 3 3 3 3 3 3 4 5 4 4 5 5 6 6 5 5 5 5 4 4 4 4 5 4
5 5 6 6 6 6 6 5 5 5 5 6 5 5 4 4 4 4 3 3 3 3 3 3 3 4 5 5 5 6 7 8 7 6 5 4 5 5 4 4 4 4 4
5 5 5 5 5 5 5 5 5 5 5 5 5 4 4 4 4 4 3 3 3 3 3 3 4 5 5 6 6 7 7 7 7 6 5 3 4 4 4 3 4 3 3
Wind_Direction
168 172 171 175 175 164 166 174 171 165 163 167 172 172 173 172 171 171 174 169 167 167 168 169 177 166 159 169 169 173 190 181 234 273 269 242 233 262 284 279 277 276 278
177 172 178 175 173 176 181 183 176 171 170 171 173 174 180 179 178 180 184 181 183 182 184 180 187 177 182 184 179 195 212 212 212 257 277 263 250 256 277 285 282 278 278
171 168 179 181 184 194 190 182 175 174 174 174 174 181 187 185 186 189 188 190 194 194 191 192 194 186 199 197 194 202 211 219 213 236 266 268 270 273 283 288 286 286 288
166 174 191 196 197 203 196 185 180 179 180 182 185 188 189 188 190 191 192 192 196 201 199 198 199 198 202 199 204 209 206 210 215 228 252 264 267 270 265 279 288 283 285
173 199 211 206 194 196 195 192 186 183 186 185 187 190 191 192 195 190 192 195 198 205 207 207 211 208 205 204 207 205 201 208 218 229 245 260 262 272 264 259 273 287 286
192 214 209 192 195 203 206 199 188 186 184 186 197 197 199 209 205 198 193 197 202 206 213 216 216 213 217 222 224 219 210 210 215 223 238 244 253 253 256 268 277 298 293
196 211 204 191 198 207 209 207 209 202 194 199 204 202 210 216 211 209 207 202 208 212 213 214 219 217 216 216 229 234 235 237 230 221 230 241 245 241 240 260 262 265 267
196 207 208 214 225 222 205 213 216 210 208 212 209 209 215 226 222 219 214 212 218 220 217 214 217 218 213 208 213 223 234 241 240 235 230 236 239 229 223 238 252 269 275
338 287 248 227 235 242 235 228 222 214 220 216 212 216 220 230 225 223 215 209 221 229 226 218 215 218 223 217 213 221 237 248 251 245 245 248 251 257 255 253 265 279 284
301 289 279 245 234 241 244 237 228 220 224 220 221 219 219 226 226 223 214 208 220 230 230 225 223 224 229 222 216 216 232 242 239 248 249 255 253 254 254 235 223 247 272
328 335 317 289 263 259 257 243 225 227 228 227 226 225 222 228 229 225 217 211 215 222 227 228 229 231 233 230 226 222 235 242 231 229 239 244 246 241 240 235 224 225 244
333 323 314 306 299 294 264 259 239 226 231 235 234 241 238 235 230 232 228 225 223 220 227 225 227 233 236 238 237 239 244 246 226 227 239 242 242 243 241 239 236 238 242
335 323 317 316 311 297 267 251 245 231 231 237 231 245 253 243 240 241 238 236 233 229 231 231 236 240 244 241 238 240 238 224 219 235 241 243 237 236 238 246 250 255 262
330 324 323 321 320 314 301 268 248 237 232 237 239 246 252 249 241 239 237 242 240 241 241 237 240 241 238 236 238 234 220 212 219 233 242 244 240 238 246 245 258 265 274
324 325 327 322 312 306 300 286 273 260 243 244 244 241 244 253 251 245 240 238 232 234 231 223 227 231 225 226 226 223 213 211 226 226 233 244 248 248 253 246 250 254 261
322 321 318 314 312 306 303 308 291 271 278 268 260 260 262 261 265 253 250 254 253 246 239 226 229 227 228 228 225 224 220 219 221 224 229 235 244 249 256 255 252 252 262
310 305 304 303 303 302 299 294 301 305 292 282 275 271 267 269 267 260 254 254 252 244 239 230 231 230 231 228 227 227 230 226 223 228 234 237 240 244 250 257 254 254 258
314 306 302 294 290 292 293 290 284 287 296 298 286 276 272 270 267 261 254 255 250 237 231 234 235 232 232 231 229 233 235 228 225 230 233 235 236 243 251 255 255 255 261
313 310 307 300 293 289 287 287 284 281 280 283 288 287 274 270 268 259 243 235 237 242 238 235 230 229 231 228 226 227 230 232 229 227 231 235 238 244 252 254 256 261 265
310 307 309 304 299 294 287 283 281 279 279 278 278 278 278 274 269 258 242 238 240 244 241 242 238 233 229 225 222 224 230 232 229 231 235 237 238 240 250 254 254 259 261
310 310 309 305 296 291 286 279 276 276 274 272 271 270 268 259 256 256 253 250 247 247 247 246 242 233 227 226 225 224 228 233 229 233 238 241 239 243 248 252 255 257 261
307 305 301 295 292 290 287 280 274 271 271 272 276 279 276 270 260 257 255 255 252 248 242 240 241 235 225 221 220 223 229 232 232 233 238 243 243 244 247 250 253 255 256
306 301 298 294 291 292 294 286 279 273 271 272 274 274 271 263 262 261 260 257 255 254 246 235 237 240 230 224 218 217 226 230 230 231 238 240 242 246 246 249 250 254 257
306 302 298 297 294 289 288 287 284 280 277 276 275 274 270 266 265 263 262 262 261 259 251 238 238 237 235 234 232 230 232 235 233 231 229 235 241 245 247 249 250 250 252
305 302 300 297 294 291 287 285 285 285 284 282 278 276 272 269 267 265 263 262 261 260 259 252 251 246 238 238 240 238 238 238 240 236 229 229 233 237 241 244 247 246 245
303 301 299 297 294 292 290 289 288 287 284 283 281 280 275 271 269 268 268 265 262 259 257 254 251 253 253 249 247 243 242 242 242 242 233 219 224 232 232 239 239 235 232
Height
1472 1474 1475 1477 1478 1479 1480 1482 1483 1485 1486 1487 1489 1490 1492 1493 1495 1496 1497 1498 1499 1500 1501 1502 1503 1504 1505 1506 1507 1507 1507 1508 1507 1506 1507 1506 1506 1505 1504 1504 1502 1501 1500
1471 1472 1473 1475 1476 1477 1478 1479 1481 1482 1483 1485 1486 1487 1489 1490 1491 1492 1494 1495 1496 1497 1498 1499 1500 1501 1501 1502 1503 1503 1504 1504 1504 1502 1502 1502 1501 1500 1500 1499 1498 1496 1495
1469 1470 1471 1472 1473 1474 1475 1476 1478 1479 1480 1482 1483 1484 1485 1487 1488 1489 1490 1492 1493 1493 1494 1495 1496 1497 1497 1498 1499 1499 1499 1499 1499 1498 1498 1497 1497 1496 1495 1494 1493 1492 1491
1467 1468 1469 1470 1471 1472 1473 1474 1475 1476 1477 1478 1479 1481 1482 1483 1484 1486 1487 1487 1489 1489 1490 1491 1492 1493 1493 1494 1494 1495 1495 1495 1494 1494 1493 1493 1492 1491 1490 1489 1488 1487 1486
1465 1466 1467 1467 1468 1469 1470 1471 1472 1473 1474 1475 1476 1477 1478 1479 1480 1481 1482 1483 1484 1485 1486 1487 1488 1489 1489 1490 1490 1490 1490 1490 1489 1489 1489 1488 1487 1486 1486 1484 1483 1481 1480
1463 1463 1464 1465 1465 1466 1467 1468 1468 1469 1470 1471 1472 1473 1474 1475 1476 1477 1478 1479 1480 1480 1481 1482 1483 1484 1485 1486 1486 1486 1486 1485 1485 1484 1484 1483 1482 1482 1481 1480 1478 1476 1474
1461 1461 1461 1462 1462 1463 1463 1464 1465 1465 1466 1467 1468 1469 1469 1471 1472 1473 1473 1474 1475 1476 1477 1477 1478 1479 1480 1480 1480 1481 1481 1481 1481 1480 1479 1478 1478 1477 1476 1475 1474 1472 1470
1458 1458 1458 1459 1459 1459 1459 1460 1461 1462 1462 1463 1463 1464 1465 1466 1467 1468 1469 1469 1470 1471 1471 1472 1473 1473 1474 1475 1475 1475 1475 1475 1475 1475 1474 1474 1473 1473 1472 1471 1469 1467 1465
1455 1455 1456 1456 1456 1456 1456 1457 1457 1457 1458 1458 1459 1459 1460 1461 1462 1463 1464 1464 1465 1465 1466 1467 1468 1468 1469 1469 1470 1469 1469 1469 1470 1469 1469 1468 1468 1468 1467 1466 1464 1462 1459
1453 1453 1453 1453 1453 1453 1453 1453 1453 1453 1453 1454 1454 1455 1455 1456 1457 1458 1459 1459 1459 1460 1461 1462 1462 1463 1463 1463 1463 1463 1463 1463 1464 1463 1463 1462 1462 1462 1461 1460 1459 1457 1455
1450 1450 1450 1449 1449 1449 1448 1448 1449 1449 1449 1449 1449 1450 1450 1451 1452 1453 1453 1453 1454 1454 1455 1456 1457 1457 1458 1458 1458 1458 1458 1458 1457 1457 1457 1456 1456 1455 1455 1454 1453 1453 1451
1447 1447 1446 1446 1446 1445 1445 1444 1445 1445 1444 1445 1445 1445 1445 1446 1447 1447 1448 1448 1448 1449 1449 1450 1451 1451 1452 1452 1452 1452 1452 1452 1452 1451 1451 1450 1450 1449 1449 1448 1447 1447 1446
1445 1444 1443 1443 1442 1442 1441 1441 1440 1440 1440 1440 1440 1440 1441 1441 1442 1442 1442 1443 1443 1443 1444 1444 1445 1445 1445 1446 1446 1446 1446 1446 1446 1445 1445 1444 1444 1444 1443 1442 1441 1441 1439
1442 1441 1440 1439 1438 1438 1438 1437 1437 1436 1436 1436 1436 1436 1436 1436 1437 1437 1437 1437 1437 1438 1438 1438 1439 1439 1439 1439 1440 1440 1440 1440 1440 1440 1439 1439 1438 1438 1437 1437 1436 1434 1433
1439 1438 1437 1437 1436 1435 1434 1434 1433 1433 1433 1433 1432 1432 1432 1431 1432 1433 1432 1432 1432 1432 1433 1433 1433 1433 1433 1433 1434 1434 1434 1434 1434 1434 1434 1433 1433 1432 1432 1431 1430 1429 1428
1437 1436 1435 1434 1433 1432 1431 1430 1430 1430 1429 1429 1428 1428 1427 1428 1427 1427 1427 1427 1427 1427 1427 1427 1427 1427 1427 1428 1428 1428 1429 1429 1429 1429 1428 1428 1428 1427 1426 1426 1425 1424 1423
1434 1433 1432 1431 1430 1429 1428 1427 1426 1425 1425 1424 1424 1423 1423 1422 1422 1422 1422 1422 1422 1422 1422 1421 1421 1422 1422 1422 1423 1423 1423 1423 1423 1423 1423 1423 1423 1422 1421 1420 1420 1419 1418
1431 1430 1429 1428 1427 1425 1424 1424 1422 1421 1420 1419 1419 1419 1418 1418 1417 1417 1417 1417 1416 1416 1416 1416 1416 1417 1417 1417 1417 1418 1418 1418 1418 1418 1418 1418 1417 1417 1416 1415 1415 1414 1413
1428 1426 1425 1424 1423 1422 1421 1420 1418 1417 1416 1415 1414 1414 1414 1413 1412 1412 1412 1411 1411 1411 1411 1411 1411 1411 1412 1412 1412 1412 1413 1413 1413 1413 1413 1413 1412 1412 1411 1410 1410 1409 1408
1424 1423 1422 1420 1419 1418 1417 1415 1414 1413 1412 1411 1410 1409 1409 1408 1407 1407 1407 1407 1406 1406 1406 1406 1406 1406 1407 1407 1407 1407 1407 1407 1408 1408 1408 1408 1407 1407 1406 1406 1405 1404 1403
1421 1419 1418 1417 1415 1414 1413 1411 1410 1409 1408 1406 1406 1405 1405 1404 1403 1402 1402 1402 1402 1401 1401 1401 1401 1401 1401 1401 1402 1402 1402 1402 1403 1403 1403 1403 1402 1402 1401 1401 1400 1399 1398
1417 1415 1414 1413 1411 1410 1408 1407 1406 1405 1404 1403 1401 1401 1400 1399 1399 1398 1398 1397 1397 1397 1396 1396 1396 1396 1396 1396 1396 1397 1397 1397 1397 1398 1398 1398 1397 1397 1396 1396 1395 1395 1394
1413 1411 1410 1408 1407 1406 1404 1403 1401 1400 1399 1398 1397 1396 1396 1395 1394 1394 1393 1393 1392 1392 1392 1391 1391 1391 1391 1391 1391 1392 1392 1392 1392 1393 1393 1392 1392 1392 1391 1391 1390 1390 1389
1409 1408 1406 1404 1403 1401 1400 1398 1397 1396 1395 1394 1393 1392 1391 1390 1390 1389 1389 1388 1387 1387 1387 1387 1386 1386 1386 1386 1386 1387 1387 1387 1388 1388 1388 1388 1387 1387 1387 1386 1386 1385 1385
1405 1404 1402 1400 1399 1397 1396 1394 1393 1392 1390 1389 1388 1387 1387 1386 1385 1385 1384 1383 1383 1382 1382 1382 1382 1382 1381 1382 1382 1382 1382 1382 1383 1383 1383 1383 1383 1382 1382 1382 1381 1381 1381
1401 1400 1398 1396 1394 1393 1391 1390 1388 1387 1386 1385 1384 1383 1382 1382 1381 1380 1380 1379 1379 1378 1378 1378 1378 1377 1377 1377 1377 1377 1378 1378 1378 1378 1378 1378 1378 1378 1378 1377 1377 1377 1377